Miscellaneous Local Product
Issued by NWS North Platte, NE

Home | Current Version | Previous Version | Graphics & Text | Print | Product List | Glossary On
Versions: 1 2 3 4 5 6 7 8 9 10 11 12 13 14 15 16 17 18 19 20 21 22 23 24 25 26 27 28 29 30 31 32 33 34 35 36 37 38 39 40 41 42 43 44 45 46 47 48 49 50
223
AXUS43 KLBF 292010
MISLBF


WESTERN AND NORTH CENTRAL NEBRASKA HOURLY WEATHER ROUNDUP
NATIONAL WEATHER SERVICE NORTH PLATTE NE
300 PM CDT WED MAR 29 2017

NOTE: "FAIR" INDICATES FEW OR NO CLOUDS BELOW 12,000 FEET WITH NO
SIGNIFICANT WEATHER AND/OR OBSTRUCTIONS TO VISIBILITY.

NOTE: STATIONS NOT REPORTING VARIABLES SUCH AS SKY/WEATHER OR
PRESSURE ARE PROVIDED BY RAWS AND APRS NETWORKS AND ARE NOT UNDER
NATIONAL WEATHER SERVICE QUALITY CONTROL.

...OBSERVATIONS IN AND NEAR THE EASTERN PANHANDLE OF NEBRASKA...

CITY           SKY/WX    TMP DP  RH WIND       PRES   REMARKS
PINE RIDGE     CLOUDY    52  41  66 VRB5      30.02F
CHADRON        MOSUNNY   54  40  59 CALM      30.02F
ALLIANCE       CLOUDY    48  38  68 N12       30.01F
SIDNEY         CLOUDY    47  38  71 N18       30.00F
CRESCENT LAKE    N/A     49  38  66 N14G21      N/A
$$

...OBSERVATIONS IN NORTHERN NEBRASKA AND FAR SOUTHERN SOUTH DAKOTA...

CITY           SKY/WX    TMP DP  RH WIND       PRES   REMARKS
WINNER         PTSUNNY   54  41  61 E15       30.03F
VALENTINE      CLOUDY    52  37  56 NE14      30.02F
THEDFORD       CLOUDY    48  41  76 NE14      29.99F
AINSWORTH      CLOUDY    46  42  86 NE10      30.01F
O`NEILL        CLOUDY    44  41  89 NE15      30.01F
ORD            LGT RAIN  44  39  82 NE20G29   29.95F
BROKEN BOW     CLOUDY    45  39  79 NE16      29.94F
VALENTINE NWR    N/A     50  39  67 N10         N/A
HALSEY           N/A     46  41  83 N7G16       N/A
BUTTE            N/A     44  39  82 NE14G23     N/A
CHAMBERS         N/A     44  40  87 MISG        N/A
EWING            N/A     44  42  91 NE9G17      N/A
$$

...OBSERVATIONS IN SOUTHWEST NEBRASKA AND FAR NORTHEAST COLORADO...

CITY           SKY/WX    TMP DP  RH WIND       PRES   REMARKS
HOLYOKE        MOCLDY    48  41  76 N20G26    29.99F
IMPERIAL       CLOUDY    46  39  76 N21       29.96F
OGALLALA       CLOUDY    48  40  75 N15G22    29.99F
NORTH PLATTE   CLOUDY    48  38  68 N23G31    29.95F
MCCOOK         LGT RAIN  45  42  89 N24G31    29.91F
LEXINGTON      LGT RAIN  44  41  88 N21G28    29.91F
STAPLETON        N/A     45  40  84 NE3G12      N/A
GOTHENBURG       N/A     45  39  79 N17         N/A
CALLAWAY         N/A     43  41  93 NE17        N/A
$$

...OBSERVATIONS IN CENTRAL LINCOLN COUNTY AREA...

CITY           SKY/WX    TMP DP  RH WIND       PRES   REMARKS
N.P. AIRPORT   CLOUDY    48  38  68 N23G31    29.95F
N.P. DOWNTOWN    N/A     48  40  75 N13G21      N/A
N.P. SOUTHEAST   N/A     47  39  74 N7G14       N/A
N.P. HILLCREST   N/A     47  40  76 NE21G28     N/A
$$

...SOME OBSERVATIONS FROM AROUND THE REGION...

CITY           SKY/WX    TMP DP  RH WIND       PRES   REMARKS
DENVER         PTSUNNY   53  32  44 N22G29    30.01F
LIMON          CLOUDY    44  36  73 N22G32    29.98F
ASPEN          MOSUNNY   47  24  40 N9        30.09F
LARAMIE        SUNNY     46  24  42 NW12G24   30.05F
CASPER         SUNNY     54  27  35 W10G16    30.03F
CHEYENNE       PTSUNNY   49  27  42 N18G26    30.03F
SCOTTSBLUFF    PTSUNNY   56  37  49 N10       30.01F
GRAND ISLAND   LGT RAIN  42  42 100 NE21G32   29.89F
OMAHA          RAIN      43  39  86 NE17      29.91F FOG
SIOUX FALLS    CLOUDY    50  36  58 E22G36    30.06F
PIERRE         CLOUDY    61  35  37 SE16G23   30.01F
RAPID CITY     SUNNY     55  40  56 VRB3      30.02F
BISMARCK       CLOUDY    61  39  44 S15       30.01F
KANSAS CITY    CLOUDY    53  51  93 E18       29.72F
HILL CITY      LGT RAIN  44  41  89 N26G35    29.87S FOG
WICHITA        CLOUDY    59  54  83 S18       29.58F
DODGE CITY     LGT RAIN  43  40  89 N29G40    29.78S FOG
OKLAHOMA CITY  PTSUNNY   59  51  75 W16       29.71S
DALLAS         MOSUNNY   82  42  24 SW26G32   29.70S
AMARILLO       CLOUDY    45  42  89 N29G38    29.89S
$$




USA.gov is the U.S. government's official web portal to all federal, state and local government web resources and services.